Time,TemperatureF,DewpointF,PressureIn,WindDirection,WindDirectionDegrees,WindSpeedMPH,WindSpeedGustMPH,Humidity,HourlyPrecipIn,Conditions,Clouds,dailyrainin,SoftwareType,DateUTC
2013-04-22 00:07:00,26.6,10.9,30.27,WNW,292,0.0,-999.0,51,-99.99,,,0.00,Acu-Link.com,2013-04-22 07:07:00,
2013-04-22 00:22:00,26.6,10.9,30.27,East,90,0.0,-999.0,51,-99.99,,,0.00,Acu-Link.com,2013-04-22 07:22:00,
2013-04-22 00:38:00,26.6,11.4,30.27,West,270,0.0,-999.0,52,-99.99,,,0.00,Acu-Link.com,2013-04-22 07:38:00,
2013-04-22 00:53:00,26.6,10.9,30.29,WNW,292,0.0,-999.0,51,-99.99,,,0.00,Acu-Link.com,2013-04-22 07:53:00,
2013-04-22 01:08:00,26.6,10.9,30.28,North,0,0.0,-999.0,51,-99.99,,,0.00,Acu-Link.com,2013-04-22 08:08:00,
2013-04-22 01:24:00,26.6,10.9,30.29,NW,315,0.0,-999.0,51,-99.99,,,0.00,Acu-Link.com,2013-04-22 08:24:00,
2013-04-22 01:39:00,26.6,11.4,30.29,North,0,0.0,-999.0,52,-99.99,,,0.00,Acu-Link.com,2013-04-22 08:39:00,
2013-04-22 01:54:00,24.8,9.7,30.30,ENE,67,0.0,-999.0,52,-99.99,,,0.00,Acu-Link.com,2013-04-22 08:54:00,
2013-04-22 02:09:00,24.8,11.0,30.30,ENE,67,0.0,-999.0,55,-99.99,,,0.00,Acu-Link.com,2013-04-22 09:09:00,
2013-04-22 02:24:00,23.0,10.5,30.30,ENE,67,0.0,-999.0,58,-99.99,,,0.00,Acu-Link.com,2013-04-22 09:24:00,
2013-04-22 02:39:00,23.0,10.8,30.31,East,90,0.0,-999.0,59,-99.99,,,0.00,Acu-Link.com,2013-04-22 09:39:00,
2013-04-22 02:54:00,23.0,11.6,30.31,East,90,0.0,-999.0,61,-99.99,,,0.00,Acu-Link.com,2013-04-22 09:54:00,
2013-04-22 03:10:00,21.2,11.0,30.31,East,90,0.0,-999.0,64,-99.99,,,0.00,Acu-Link.com,2013-04-22 10:10:00,
2013-04-22 03:25:00,21.2,12.3,30.31,NE,45,0.0,-999.0,68,-99.99,,,0.00,Acu-Link.com,2013-04-22 10:25:00,
2013-04-22 03:40:00,21.2,12.3,30.32,West,270,0.0,-999.0,68,-99.99,,,0.00,Acu-Link.com,2013-04-22 10:40:00,
2013-04-22 03:56:00,21.2,13.3,30.32,SSE,157,0.0,-999.0,71,-99.99,,,0.00,Acu-Link.com,2013-04-22 10:56:00,
2013-04-22 04:11:00,21.2,14.5,30.32,WNW,292,0.0,-999.0,75,-99.99,,,0.00,Acu-Link.com,2013-04-22 11:11:00,
2013-04-22 04:26:00,21.2,14.5,30.33,WNW,292,0.0,-999.0,75,-99.99,,,0.00,Acu-Link.com,2013-04-22 11:26:00,
2013-04-22 04:42:00,21.2,14.5,30.33,WNW,292,0.0,-999.0,75,-99.99,,,0.00,Acu-Link.com,2013-04-22 11:42:00,
2013-04-22 04:57:00,19.4,12.5,30.33,SSE,157,0.0,-999.0,74,-99.99,,,0.00,Acu-Link.com,2013-04-22 11:57:00,
2013-04-22 05:12:00,19.4,13.4,30.34,East,90,0.0,-999.0,77,-99.99,,,0.00,Acu-Link.com,2013-04-22 12:12:00,
2013-04-22 05:27:00,19.4,13.4,30.35,East,90,0.0,-999.0,77,-99.99,,,0.00,Acu-Link.com,2013-04-22 12:27:00,
2013-04-22 05:42:00,19.4,13.4,30.35,East,90,0.0,-999.0,77,-99.99,,,0.00,Acu-Link.com,2013-04-22 12:42:00,
2013-04-22 05:57:00,19.4,13.4,30.36,East,90,0.0,-999.0,77,-99.99,,,0.00,Acu-Link.com,2013-04-22 12:57:00,
2013-04-22 07:58:00,23.0,16.9,30.38,SE,135,0.0,-999.0,77,-99.99,,,0.00,Acu-Link.com,2013-04-22 14:58:00,
2013-04-22 08:13:00,24.8,17.4,30.38,SE,135,0.0,-999.0,73,-99.99,,,0.00,Acu-Link.com,2013-04-22 15:13:00,
2013-04-22 08:29:00,28.4,18.9,30.38,ENE,67,0.0,-999.0,67,-99.99,,,0.00,Acu-Link.com,2013-04-22 15:29:00,
2013-04-22 08:44:00,33.8,16.7,30.38,NNW,337,1.1,-999.0,49,-99.99,,,0.00,Acu-Link.com,2013-04-22 15:44:00,
2013-04-22 08:59:00,35.6,16.4,30.38,SSE,157,1.1,-999.0,45,-99.99,,,0.00,Acu-Link.com,2013-04-22 15:59:00,
2013-04-22 09:15:00,37.4,15.3,30.38,East,90,1.1,-999.0,40,-99.99,,,0.00,Acu-Link.com,2013-04-22 16:15:00,
2013-04-22 09:30:00,39.2,14.5,30.38,WSW,247,1.6,-999.0,36,-99.99,,,0.00,Acu-Link.com,2013-04-22 16:30:00,
2013-04-22 09:45:00,42.8,15.0,30.38,SSW,202,1.1,-999.0,32,-99.99,,,0.00,Acu-Link.com,2013-04-22 16:45:00,
2013-04-22 10:00:00,42.8,13.5,30.38,ENE,67,2.7,-999.0,30,-99.99,,,0.00,Acu-Link.com,2013-04-22 17:00:00,
2013-04-22 10:15:00,42.8,11.2,30.37,East,90,3.1,-999.0,27,-99.99,,,0.00,Acu-Link.com,2013-04-22 17:15:00,
2013-04-22 10:30:00,44.6,10.1,30.37,NNW,337,2.0,-999.0,24,-99.99,,,0.00,Acu-Link.com,2013-04-22 17:30:00,
2013-04-22 10:46:00,44.6,8.1,30.37,West,270,3.1,-999.0,22,-99.99,,,0.00,Acu-Link.com,2013-04-22 17:46:00,
2013-04-22 11:01:00,48.2,10.1,30.37,West,270,1.6,-999.0,21,-99.99,,,0.00,Acu-Link.com,2013-04-22 18:01:00,
2013-04-22 11:16:00,48.2,10.1,30.37,East,90,3.1,-999.0,21,-99.99,,,0.00,Acu-Link.com,2013-04-22 18:16:00,
2013-04-22 11:31:00,48.2,7.9,30.37,West,270,2.7,-999.0,19,-99.99,,,0.00,Acu-Link.com,2013-04-22 18:31:00,
2013-04-22 11:46:00,46.4,6.4,30.36,ENE,67,4.0,-999.0,19,-99.99,,,0.00,Acu-Link.com,2013-04-22 18:46:00,
2013-04-22 12:01:00,50.0,9.4,30.36,ESE,112,3.1,-999.0,19,-99.99,,,0.00,Acu-Link.com,2013-04-22 19:01:00,
2013-04-22 12:16:00,50.0,6.9,30.36,East,90,3.6,-999.0,17,-99.99,,,0.00,Acu-Link.com,2013-04-22 19:16:00,
2013-04-22 12:31:00,50.0,4.2,30.36,NW,315,4.0,-999.0,15,-99.99,,,0.00,Acu-Link.com,2013-04-22 19:31:00,
2013-04-22 12:46:00,50.0,5.6,30.35,SE,135,4.0,-999.0,16,-99.99,,,0.00,Acu-Link.com,2013-04-22 19:46:00,
2013-04-22 13:01:00,50.0,5.6,30.35,ENE,67,4.0,-999.0,16,-99.99,,,0.00,Acu-Link.com,2013-04-22 20:01:00,
2013-04-22 13:16:00,50.0,4.2,30.33,WNW,292,2.7,-999.0,15,-99.99,,,0.00,Acu-Link.com,2013-04-22 20:16:00,
2013-04-22 13:31:00,50.0,8.2,30.33,NE,45,3.6,-999.0,18,-99.99,,,0.00,Acu-Link.com,2013-04-22 20:31:00,
2013-04-22 13:46:00,51.8,8.4,30.32,WNW,292,3.1,-999.0,17,-99.99,,,0.00,Acu-Link.com,2013-04-22 20:46:00,
2013-04-22 14:02:00,51.8,5.7,30.32,East,90,1.6,-999.0,15,-99.99,,,0.00,Acu-Link.com,2013-04-22 21:02:00,
2013-04-22 14:17:00,53.6,8.5,30.31,NNW,337,4.7,-999.0,16,-99.99,,,0.00,Acu-Link.com,2013-04-22 21:17:00,
2013-04-22 14:32:00,51.8,5.7,30.31,NE,45,2.7,-999.0,15,-99.99,,,0.00,Acu-Link.com,2013-04-22 21:32:00,
2013-04-22 14:47:00,51.8,4.2,30.30,NNE,22,4.0,-999.0,14,-99.99,,,0.00,Acu-Link.com,2013-04-22 21:47:00,
2013-04-22 15:02:00,53.6,5.6,30.30,ESE,112,2.7,-999.0,14,-99.99,,,0.00,Acu-Link.com,2013-04-22 22:02:00,
2013-04-22 15:17:00,55.4,15.0,30.29,SSW,202,0.0,-999.0,20,-99.99,,,0.02,Acu-Link.com,2013-04-22 22:17:00,
2013-04-22 15:32:00,53.6,5.6,30.29,WNW,292,5.1,-999.0,14,-99.99,,,0.02,Acu-Link.com,2013-04-22 22:32:00,
2013-04-22 15:48:00,55.4,5.4,30.29,South,180,4.0,-999.0,13,-99.99,,,0.02,Acu-Link.com,2013-04-22 22:48:00,
2013-04-22 16:52:00,55.4,3.7,30.28,NW,315,1.6,-999.0,12,-99.99,,,0.02,Acu-Link.com,2013-04-22 23:52:00,
2013-04-22 17:08:00,55.4,5.4,30.26,North,0,2.7,-999.0,13,-99.99,,,0.02,Acu-Link.com,2013-04-23 00:08:00,
2013-04-22 17:23:00,55.4,5.4,30.26,NNW,337,6.3,-999.0,13,-99.99,,,0.02,Acu-Link.com,2013-04-23 00:23:00,
2013-04-22 17:38:00,55.4,3.7,30.25,West,270,2.7,-999.0,12,-99.99,,,0.02,Acu-Link.com,2013-04-23 00:38:00,
2013-04-22 17:53:00,55.4,5.4,30.24,WNW,292,1.6,-999.0,13,-99.99,,,0.02,Acu-Link.com,2013-04-23 00:53:00,
2013-04-22 18:08:00,53.6,4.0,30.24,NNW,337,2.7,-999.0,13,-99.99,,,0.02,Acu-Link.com,2013-04-23 01:08:00,
2013-04-22 18:23:00,53.6,4.0,30.24,NNW,337,1.6,-999.0,13,-99.99,,,0.02,Acu-Link.com,2013-04-23 01:23:00,
2013-04-22 18:38:00,51.8,7.1,30.24,North,0,2.0,-999.0,16,-99.99,,,0.02,Acu-Link.com,2013-04-23 01:38:00,
2013-04-22 18:54:00,51.8,8.4,30.24,NE,45,2.0,-999.0,17,-99.99,,,0.02,Acu-Link.com,2013-04-23 01:54:00,
2013-04-22 19:09:00,51.8,9.7,30.24,SE,135,0.0,-999.0,18,-99.99,,,0.02,Acu-Link.com,2013-04-23 02:09:00,
2013-04-22 19:24:00,50.0,10.5,30.24,SE,135,0.0,-999.0,20,-99.99,,,0.02,Acu-Link.com,2013-04-23 02:24:00,
2013-04-22 19:39:00,50.0,14.7,30.23,SE,135,0.0,-999.0,24,-99.99,,,0.02,Acu-Link.com,2013-04-23 02:39:00,
2013-04-22 19:54:00,46.4,13.4,30.22,NE,45,0.0,-999.0,26,-99.99,,,0.02,Acu-Link.com,2013-04-23 02:54:00,
2013-04-22 20:10:00,44.6,12.7,30.22,NE,45,0.0,-999.0,27,-99.99,,,0.02,Acu-Link.com,2013-04-23 03:10:00,
2013-04-22 20:25:00,44.6,12.7,30.21,NE,45,0.0,-999.0,27,-99.99,,,0.02,Acu-Link.com,2013-04-23 03:25:00,
2013-04-22 20:40:00,42.8,12.0,30.22,NE,45,0.0,-999.0,28,-99.99,,,0.02,Acu-Link.com,2013-04-23 03:40:00,
2013-04-22 20:55:00,42.8,13.5,30.22,NE,45,0.0,-999.0,30,-99.99,,,0.02,Acu-Link.com,2013-04-23 03:55:00,
2013-04-22 21:11:00,42.8,15.0,30.22,NE,45,0.0,-999.0,32,-99.99,,,0.02,Acu-Link.com,2013-04-23 04:11:00,
2013-04-22 21:26:00,41.0,15.5,30.22,ENE,67,0.0,-999.0,35,-99.99,,,0.02,Acu-Link.com,2013-04-23 04:26:00,
2013-04-22 21:41:00,41.0,18.0,30.22,ESE,112,0.0,-999.0,39,-99.99,,,0.02,Acu-Link.com,2013-04-23 04:41:00,
2013-04-22 21:56:00,39.2,18.1,30.22,ESE,112,0.0,-999.0,42,-99.99,,,0.02,Acu-Link.com,2013-04-23 04:56:00,
2013-04-22 22:12:00,37.4,18.0,30.21,SSE,157,0.0,-999.0,45,-99.99,,,0.02,Acu-Link.com,2013-04-23 05:12:00,
2013-04-22 22:27:00,37.4,19.5,30.21,East,90,0.0,-999.0,48,-99.99,,,0.02,Acu-Link.com,2013-04-23 05:27:00,
2013-04-22 22:42:00,35.6,18.3,30.21,East,90,0.0,-999.0,49,-99.99,,,0.02,Acu-Link.com,2013-04-23 05:42:00,
2013-04-22 22:57:00,35.6,18.8,30.22,East,90,0.0,-999.0,50,-99.99,,,0.02,Acu-Link.com,2013-04-23 05:57:00,
2013-04-22 23:12:00,35.6,20.6,30.21,East,90,0.0,-999.0,54,-99.99,,,0.02,Acu-Link.com,2013-04-23 06:12:00,
2013-04-22 23:27:00,33.8,20.2,30.20,East,90,0.0,-999.0,57,-99.99,,,0.02,Acu-Link.com,2013-04-23 06:27:00,
2013-04-22 23:43:00,33.8,20.6,30.20,East,90,0.0,-999.0,58,-99.99,,,0.02,Acu-Link.com,2013-04-23 06:43:00,
2013-04-22 23:58:00,33.8,20.6,30.20,East,90,0.0,-999.0,58,-99.99,,,0.02,Acu-Link.com,2013-04-23 06:58:00,